Content
SEND FEEDBACK

Daily
Averages
Monthly
Summary
United States of America

FRANKLIN, IDAHO


Home > North America > United States > Idaho
Elevation: 1422 meters     Latitude: 42 05N     Longitude: 111 52W

WEATHER
 
SELECT A DAY
Number of Records: 172,333;   Date Range: 1/5/95 - 12/25/14
 
SHARE

PRINT THIS DATA

[ ← Previous Day ]
WEATHER ALMANAC - 5 FEBRUARY, 2013
[ Next Day → ]
[ °F ]   °C
Weather ElementAverageHighLow
Temperature-6.5 °C-2.2 °C (2:51 pm)-11 °C (11:57 pm)
Dewpoint-8.7 °C-5.6 °C (2:51 pm)-12.2 °C (4:51 am)
Humidity85 %93 % (7:48 am)74 % (1:43 pm)
Barometer1020 hPa1026.1 hPa (1:51 am)1013.9 hPa (8:48 pm)
Wind Speed3.1 km/h11.1 km/h (5:51 pm)
Weather ElementAverage
Visibility4.3 km
Wind DirectionESE (101.2 °)

Weather ElementTotal
Precipitation---
Heating Degree Days24.9 (Base 18.3)
Averaged from 33 records on 5 February, 2013
WEATHER CONDITIONS BREAKOUT
WIND DIRECTION BREAKOUT
WEATHER BY HOUR - 5 FEBRUARY, 2013
[ °F ]   °C
Local TimeTemperatureDewpointHumidityBarometerVisibilityWind DirectionWind SpeedGust SpeedPrecipitationEventsConditions
1:51 AM-9.4 °C-11.1 °C88 %1026.1 hPa6.4 kmCalmOvercast
2:51 AM-9.4 °C-11.1 °C88 %1025.7 hPa6.4 kmCalmOvercast
3:51 AM-8.9 °C-10.6 °C88 %1024.4 hPa6.4 kmWest (270°)5.6 km/hScattered Clouds
4:51 AM-10.6 °C-12.2 °C88 %1024.7 hPa4.8 kmCalmClear
5:51 AM-10.6 °C-12.2 °C88 %1024.7 hPa4.8 kmCalmMostly Cloudy
6:51 AM-9.4 °C-10.6 °C91 %1024.7 hPa4.8 kmCalmOvercast
7:48 AM-9 °C-10 °C93 %1019.6 hPa4 kmCalmOvercast
7:51 AM-8.9 °C-10.6 °C88 %1024.7 hPa3.2 kmCalmOvercast
8:51 AM-7.2 °C-8.3 °C92 %1025.1 hPa3.2 kmCalmOvercast
9:51 AM-6.7 °C-8.3 °C89 %1024.4 hPa4 kmCalmOvercast
10:51 AM-6.1 °C-7.8 °C88 %1024 hPa4 kmCalmOvercast
11:51 AM-3.9 °C-7.2 °C78 %1022 hPa4 kmCalmHaze
12:04 PM-4 °C-7 °C80 %1017.9 hPa4.8 kmCalmHaze
12:28 PM-4 °C-7 °C80 %1017.3 hPa4 kmWest (270°)5.6 km/hOvercast
12:39 PM-4 °C-7 °C80 %1017.3 hPa4.8 kmWest (280°)7.4 km/hHaze
12:51 PM-3.9 °C-6.7 °C81 %1020.7 hPa4.8 kmWest (280°)5.6 km/hHaze
1:04 PM-4 °C-7 °C80 %1016.6 hPa4 kmNW (310°)5.6 km/hHaze
1:43 PM-3 °C-7 °C74 %1015.6 hPa4.8 kmCalmHaze
1:51 PM-3.9 °C-6.7 °C81 %1019.6 hPa4.8 kmCalmHaze
1:56 PM-3 °C-6 °C80 %1015.6 hPa4 kmCalmHaze
2:51 PM-2.2 °C-5.6 °C78 %1018.3 hPa4 kmNW (320°)7.4 km/hHaze
3:51 PM-2.2 °C-5.6 °C78 %1018.6 hPa3.2 kmCalmHaze
4:51 PM-2.2 °C-6.1 °C75 %1018.6 hPa4.8 kmCalmHaze
5:51 PM-4.4 °C-7.2 °C81 %1018.3 hPa4 kmSSW (210°)11.1 km/hHaze
6:02 PM-4 °C-7 °C80 %1014.2 hPa4.8 kmSW (220°)9.3 km/hHaze
6:51 PM-7.8 °C-9.4 °C88 %1019 hPa4.8 kmNorth (360°)9.3 km/hClear
7:51 PM-6.7 °C-8.3 °C89 %1018.6 hPa4.8 kmCalmClear
8:48 PM-10 °C-11 °C93 %1013.9 hPa4 kmWNW (290°)7.4 km/hClear
8:51 PM-9.4 °C-11.1 °C88 %1018.6 hPa3.2 kmVariable9.3 km/hClear
9:51 PM-7.2 °C-8.9 °C88 %1017.9 hPa4 kmCalmClear
10:51 PM-7.8 °C-9.4 °C88 %1017.9 hPa3.2 kmCalmClear
11:51 PM-10 °C-11.1 °C92 %1017.9 hPa1.9 kmWest (270°)7.4 km/hPartly Cloudy
11:57 PM-11 °C-12 °C92 %1014.2 hPa1.6 kmWest (260°)9.3 km/hMist
Hourly data recorded from KLGU, located 0 kilometers away from Franklin, Idaho







STORIES FROM OUR PARTNERS